Tracking 28790 objects as of 19-Apr-2024
HD Live streaming from Space Station
objects crossing your sky now

COSMOS 2251 DEB

Track COSMOS 2251 DEB now!
10-day predictions


NORAD ID: 36058
Int'l Code: 1993-036AXV
Perigee: 688.9 km
Apogee: 759.5 km
Inclination: 74.0 °
Period: 99.1 minutes
Semi major axis: 7095 km
RCS: 0.0068 m2 (small)
Launch date: June 16, 1993
Source: Commonwealth of Independent States (former USSR) (CIS)
Launch site: PLESETSK MISSILE AND SPACE COMPLEX (PKMTR)

Note: This is SATELLITE DEBRIS
Your satellite tracking list
Your tracking list is empty




NASA's NSSDC Master Catalog

Two Line Element Set (TLE):
1 36058U 93036AXV 24110.32878023  .00008400  00000-0  20229-2 0  9993
2 36058  74.0234  96.5962 0049800  15.2136 345.0509 14.52632242794883
Source of the keplerian elements: AFSPC